West Tisbury, MA

7:17 AM EDT on September 30, 2016 (GMT -0400)
Martha's Vineyard

Weather History for KMVY - April, 2013

Change the Weather History Date:

Thursday, April 18, 2013

  Actual Average Record
Temperature  
Mean Temperature 42 °F -  
Max Temperature 57 °F 55 °F 82 °F (1976)
Min Temperature 28 °F 39 °F 25 °F (1961)
Degree Days  
Heating Degree Days 24    
Moisture  
Dew Point 37 °F    
Average Humidity 73    
Maximum Humidity 96    
Minimum Humidity 45    
Precipitation  
Precipitation 0.00 in - - ()
Sea Level Pressure  
Sea Level Pressure 30.33 in    
Wind  
Wind Speed 7 mph (SSE)    
Max Wind Speed 17 mph    
Max Gust Speed 22 mph    
Visibility 10 miles    
Events      
Averages and records for this station are not official NWS values.
T = Trace of Precipitation, MM = Missing Value Source: NWS Daily Summary

Daily Weather History Graph

Daily Weather History Graph

Search for Another Location

Airport or City:

Trip Planner

Search our weather history database for the weather conditions in past years. The results will help you decide how hot, cold, wet, or windy it might be!

Date:

Astronomy

Apr. 18, 2013 Rise Set
Actual Time 5:57 AM EDT 7:26 PM EDT
Civil Twilight 5:28 AM EDT 7:55 PM EDT
Nautical Twilight 4:54 AM EDT 8:30 PM EDT
Astronomical Twilight 4:17 AM EDT 9:07 PM EDT
Moon 12:05 PM EDT (4/18) 1:40 AM EDT (4/18)
Length of Visible Light 14h 26m
Length of Day
13h 28m
First Quarter, 51% of the Moon is Illuminated
Apr 18
First Quarter
Apr 25
Full
May 2
Last Quarter
May 9
New
May 18
First Quarter

Hourly Weather History & Observations

Time (EDT) Temp. Windchill Dew Point Humidity Pressure Visibility Wind Dir Wind Speed Gust Speed Precip Events Conditions
12:53 AM 30.9 °F - 28.9 °F 92% 30.35 in 10.0 mi Calm Calm - N/A   Clear
1:53 AM 30.9 °F 27.5 °F 30.0 °F 96% 30.36 in 9.0 mi NNW 3.5 mph - N/A   Clear
2:53 AM 30.0 °F - 28.0 °F 92% 30.35 in 9.0 mi Calm Calm - N/A   Clear
3:53 AM 28.9 °F - 28.0 °F 96% 30.36 in 10.0 mi Calm Calm - N/A   Clear
4:53 AM 28.9 °F - 27.0 °F 92% 30.39 in 10.0 mi Calm Calm - N/A   Clear
5:53 AM 28.0 °F 21.7 °F 26.1 °F 92% 30.39 in 10.0 mi NNE 5.8 mph - N/A   Clear
6:53 AM 36.0 °F - 34.0 °F 93% 30.39 in 10.0 mi Calm Calm - N/A   Clear
7:53 AM 50.0 °F - 37.9 °F 63% 30.41 in 10.0 mi East 9.2 mph - N/A   Clear
8:53 AM 53.1 °F - 35.1 °F 50% 30.40 in 10.0 mi SE 11.5 mph - N/A   Clear
9:53 AM 55.0 °F - 34.0 °F 45% 30.41 in 10.0 mi SE 12.7 mph - N/A   Clear
10:53 AM 54.0 °F - 35.1 °F 49% 30.42 in 10.0 mi SE 15.0 mph - N/A   Clear
11:53 AM 55.0 °F - 36.0 °F 49% 30.41 in 10.0 mi SE 11.5 mph - N/A   Clear
12:53 PM 55.9 °F - 37.0 °F 49% 30.40 in 10.0 mi SSE 10.4 mph - N/A   Clear
1:53 PM 55.9 °F - 37.9 °F 51% 30.39 in 10.0 mi SSE 10.4 mph - N/A   Partly Cloudy
2:53 PM 55.0 °F - 35.1 °F 47% 30.36 in 10.0 mi SSE 17.3 mph - N/A   Clear
3:53 PM 55.0 °F - 35.1 °F 47% 30.33 in 10.0 mi SSE 15.0 mph 21.9 mph N/A   Clear
4:53 PM 54.0 °F - 37.0 °F 53% 30.32 in 10.0 mi South 15.0 mph 19.6 mph N/A   Clear
5:53 PM 52.0 °F - 41.0 °F 66% 30.30 in 10.0 mi SSE 12.7 mph - N/A   Clear
6:53 PM 50.0 °F - 42.1 °F 74% 30.29 in 10.0 mi SSE 8.1 mph - N/A   Clear
7:53 PM 46.9 °F - 43.0 °F 86% 30.27 in 10.0 mi SE 10.4 mph - N/A   Clear
8:53 PM 48.0 °F - 43.0 °F 83% 30.27 in 10.0 mi SSE 13.8 mph - N/A   Partly Cloudy
9:53 PM 48.9 °F - 44.1 °F 83% 30.25 in 10.0 mi SSE 13.8 mph - N/A   Overcast
10:16 PM 48.2 °F - 44.6 °F 87% 30.23 in 10.0 mi SSE 12.7 mph - N/A   Overcast
10:53 PM 48.9 °F - 45.0 °F 86% 30.22 in 10.0 mi South 11.5 mph - N/A   Overcast
11:31 PM 50.0 °F - 46.4 °F 87% 30.19 in 10.0 mi South 15.0 mph 20.7 mph N/A   Overcast
11:53 PM 50.0 °F - 46.9 °F 89% 30.18 in 10.0 mi South 16.1 mph - N/A   Overcast